| time (UTC) | temp C | wind direction | speed KPH | gust KPH | rain 1hr cm | rain 24hr cm | rain mn cm | humidity % | barometer mb |
| 20260502221105 | 16 | 309 | 4.8 | 12.9 | 0.00 | 0.05 | 0.05 | 38 | 1009.6 |
| 20260502220605 | 16 | 354 | 4.8 | 14.5 | 0.00 | 0.05 | 0.05 | 38 | 1009.6 |
| 20260502220106 | 16 | 349 | 4.8 | 16.1 | 0.00 | 0.05 | 0.05 | 37 | 1009.7 |
| 20260502215605 | 16 | 30 | 9.7 | 16.1 | 0.00 | 0.05 | 0.05 | 38 | 1009.7 |
| 20260502215105 | 16 | 330 | 8.0 | 16.1 | 0.00 | 0.05 | 0.05 | 38 | 1009.8 |
| 20260502214605 | 16 | 316 | 4.8 | 14.5 | 0.00 | 0.05 | 0.05 | 40 | 1009.7 |
| 20260502214105 | 16 | 347 | 6.4 | 16.1 | 0.00 | 0.05 | 0.05 | 39 | 1009.7 |
| 20260502213605 | 16 | 329 | 3.2 | 16.1 | 0.00 | 0.05 | 0.05 | 41 | 1009.7 |
| 20260502213105 | 16 | 331 | 4.8 | 14.5 | 0.00 | 0.05 | 0.05 | 41 | 1009.6 |
| 20260502212605 | 16 | 25 | 6.4 | 19.3 | 0.00 | 0.05 | 0.05 | 41 | 1009.6 |
| 20260502212105 | 16 | 340 | 6.4 | 19.3 | 0.00 | 0.05 | 0.05 | 41 | 1009.5 |
| 20260502211607 | 16 | 338 | 8.0 | 19.3 | 0.00 | 0.05 | 0.05 | 39 | 1009.4 |
| 20260502211105 | 16 | 28 | 1.6 | 12.9 | 0.00 | 0.05 | 0.05 | 37 | 1009.3 |
| 20260502210605 | 16 | 345 | 6.4 | 14.5 | 0.00 | 0.05 | 0.05 | 37 | 1009.3 |
| 20260502210106 | 16 | 275 | 8.0 | 14.5 | 0.00 | 0.05 | 0.05 | 37 | 1009.2 |
| 20260502205605 | 16 | 277 | 3.2 | 9.7 | 0.00 | 0.05 | 0.05 | 38 | 1009.2 |
| 20260502205105 | 16 | 307 | 4.8 | 20.9 | 0.00 | 0.05 | 0.05 | 38 | 1009.3 |
| 20260502204605 | 16 | 324 | 3.2 | 20.9 | 0.00 | 0.05 | 0.05 | 40 | 1009.3 |
| 20260502204105 | 16 | 58 | 4.8 | 9.7 | 0.00 | 0.05 | 0.05 | 42 | 1009.3 |
| 20260502203605 | 16 | 124 | 1.6 | 12.9 | 0.00 | 0.05 | 0.05 | 42 | 1009.4 |
| 20260502203105 | 16 | 186 | 3.2 | 12.9 | 0.00 | 0.05 | 0.05 | 40 | 1009.4 |
| 20260502202605 | 17 | 19 | 3.2 | 12.9 | 0.00 | 0.05 | 0.05 | 42 | 1009.5 |
| 20260502202105 | 16 | 350 | 3.2 | 8.0 | 0.00 | 0.05 | 0.05 | 43 | 1009.5 |
| 20260502201606 | 16 | 281 | 3.2 | 4.8 | 0.00 | 0.05 | 0.05 | 43 | 1009.6 |
| 20260502201118 | 16 | 49 | 3.2 | 19.3 | 0.00 | 0.05 | 0.05 | 44 | 1009.7 |
| 20260502200605 | 16 | 68 | 3.2 | 19.3 | 0.00 | 0.05 | 0.05 | 44 | 1009.7 |
| 20260502200106 | 15 | 29 | 3.2 | 11.3 | 0.00 | 0.05 | 0.05 | 44 | 1009.8 |
| 20260502195605 | 15 | 305 | 6.4 | 19.3 | 0.00 | 0.05 | 0.05 | 43 | 1010.0 |
| 20260502195105 | 16 | 311 | 8.0 | 19.3 | 0.00 | 0.05 | 0.05 | 44 | 1010.0 |
| 20260502194605 | 16 | 314 | 8.0 | 19.3 | 0.00 | 0.05 | 0.05 | 44 | 1010.0 |
| 20260502194105 | 16 | 186 | 3.2 | 14.5 | 0.00 | 0.05 | 0.05 | 44 | 1010.1 |
| 20260502193605 | 16 | 333 | 4.8 | 19.3 | 0.00 | 0.05 | 0.05 | 44 | 1010.2 |
| 20260502193105 | 16 | 351 | 6.4 | 19.3 | 0.00 | 0.05 | 0.05 | 44 | 1010.4 |
| 20260502192605 | 16 | 332 | 4.8 | 16.1 | 0.00 | 0.05 | 0.05 | 47 | 1010.4 |
| 20260502192105 | 15 | 297 | 3.2 | 14.5 | 0.00 | 0.05 | 0.05 | 46 | 1010.5 |
| 20260502191605 | 16 | 237 | 4.8 | 14.5 | 0.00 | 0.05 | 0.05 | 47 | 1010.5 |
| 20260502191105 | 16 | 289 | 8.0 | 14.5 | 0.00 | 0.05 | 0.05 | 46 | 1010.6 |
| 20260502190605 | 16 | 296 | 8.0 | 14.5 | 0.00 | 0.05 | 0.05 | 47 | 1010.6 |
| 20260502190106 | 16 | 276 | 4.8 | 14.5 | 0.00 | 0.05 | 0.05 | 47 | 1010.7 |
| 20260502185606 | 16 | 319 | 8.0 | 14.5 | 0.00 | 0.05 | 0.05 | 47 | 1010.8 |
| 20260502185105 | 17 | 349 | 4.8 | 19.3 | 0.00 | 0.05 | 0.05 | 47 | 1010.8 |
| 20260502184605 | 16 | 331 | 4.8 | 19.3 | 0.00 | 0.05 | 0.05 | 50 | 1010.8 |
| 20260502184105 | 16 | 359 | 4.8 | 16.1 | 0.00 | 0.05 | 0.05 | 50 | 1010.8 |
| 20260502183606 | 16 | 323 | 6.4 | 16.1 | 0.00 | 0.05 | 0.05 | 50 | 1010.8 |
| 20260502183105 | 16 | 273 | 4.8 | 19.3 | 0.00 | 0.05 | 0.05 | 50 | 1010.8 |
| 20260502182605 | 16 | 242 | 8.0 | 19.3 | 0.00 | 0.05 | 0.05 | 51 | 1010.9 |
| 20260502182105 | 16 | 292 | 4.8 | 14.5 | 0.00 | 0.05 | 0.05 | 52 | 1010.9 |
| 20260502181606 | 16 | 311 | 4.8 | 12.9 | 0.00 | 0.05 | 0.05 | 52 | 1011.0 |
| 20260502181105 | 15 | 4 | 4.8 | 12.9 | 0.00 | 0.05 | 0.05 | 53 | 1011.0 |
| 20260502180605 | 15 | 249 | 3.2 | 12.9 | 0.00 | 0.05 | 0.05 | 54 | 1011.0 |
| 20260502180106 | 15 | 313 | 3.2 | 12.9 | 0.00 | 0.05 | 0.05 | 55 | 1011.0 |
| 20260502170106 | 14 | 305 | 3.2 | 11.3 | 0.00 | 0.05 | 0.05 | 61 | 1011.5 |
| 20260502164105 | 13 | 269 | 4.8 | 16.1 | 0.00 | 0.05 | 0.05 | 64 | 1011.7 |
| 20260502163605 | 13 | 272 | 8.0 | 14.5 | 0.00 | 0.05 | 0.05 | 65 | 1011.8 |
| 20260502163105 | 13 | 311 | 8.0 | 14.5 | 0.00 | 0.05 | 0.05 | 66 | 1011.9 |
| 20260502162605 | 13 | 269 | 4.8 | 12.9 | 0.00 | 0.05 | 0.05 | 66 | 1011.8 |
| 20260502162105 | 13 | 246 | 4.8 | 9.7 | 0.00 | 0.05 | 0.05 | 66 | 1011.8 |
| 20260502161607 | 13 | 226 | 1.6 | 4.8 | 0.00 | 0.05 | 0.05 | 67 | 1011.7 |
| 20260502161105 | 13 | 227 | 3.2 | 4.8 | 0.00 | 0.05 | 0.05 | 68 | 1011.8 |
| 20260502160605 | 13 | 200 | 3.2 | 4.8 | 0.00 | 0.05 | 0.05 | 69 | 1011.8 |
| 20260502160106 | 13 | 253 | 3.2 | 4.8 | 0.00 | 0.05 | 0.05 | 70 | 1011.8 |
| 20260502152105 | 12 | 334 | 3.2 | 12.9 | 0.00 | 0.05 | 0.05 | 72 | 1012.0 |
| 20260502151605 | 12 | 71 | 1.6 | 4.8 | 0.00 | 0.05 | 0.05 | 73 | 1011.9 |
| 20260502151105 | 12 | 32 | 1.6 | 4.8 | 0.00 | 0.05 | 0.05 | 74 | 1012.0 |
| 20260502150605 | 12 | 316 | 3.2 | 4.8 | 0.00 | 0.05 | 0.05 | 74 | 1012.0 |
| 20260502150106 | 12 | 310 | 3.2 | 4.8 | 0.00 | 0.05 | 0.05 | 74 | 1012.1 |
| 20260502140106 | 12 | 328 | 3.2 | 4.8 | 0.00 | 0.05 | 0.05 | 74 | 1012.2 |
| 20260502130605 | 12 | 70 | 1.6 | 4.8 | 0.00 | 0.05 | 0.05 | 79 | 1012.4 |
| 20260502130107 | 12 | 47 | 3.2 | 8.0 | 0.00 | 0.05 | 0.05 | 80 | 1012.4 |
| 20260502123605 | 11 | 36 | 4.8 | 11.3 | 0.00 | 0.05 | 0.05 | 82 | 1012.2 |
| 20260502123105 | 11 | 37 | 8.0 | 8.0 | 0.00 | 0.05 | 0.05 | 84 | 1012.2 |
| 20260502122605 | 11 | 47 | 4.8 | 8.0 | 0.00 | 0.05 | 0.05 | 84 | 1012.2 |
| 20260502122105 | 11 | 48 | 3.2 | 9.7 | 0.00 | 0.05 | 0.05 | 85 | 1012.1 |
| 20260502121605 | 11 | 60 | 6.4 | 9.7 | 0.00 | 0.05 | 0.05 | 86 | 1012.2 |
| 20260502121105 | 11 | 45 | 4.8 | 9.7 | 0.00 | 0.05 | 0.05 | 87 | 1012.1 |
| 20260502120605 | 11 | 34 | 1.6 | 4.8 | 0.00 | 0.05 | 0.05 | 88 | 1012.2 |
| 20260502120106 | 11 | 10 | 3.2 | 4.8 | 0.00 | 0.05 | 0.05 | 88 | 1012.2 |
| 20260502115605 | 11 | 27 | 3.2 | 4.8 | 0.00 | 0.05 | 0.05 | 89 | 1012.2 |
| 20260502115105 | 11 | 325 | 1.6 | 4.8 | 0.00 | 0.05 | 0.05 | 90 | 1012.3 |
| 20260502114605 | 11 | 304 | 1.6 | 4.8 | 0.00 | 0.05 | 0.05 | 90 | 1012.4 |
| 20260502114105 | 10 | 284 | 3.2 | 4.8 | 0.00 | 0.05 | 0.05 | 90 | 1012.4 |
| 20260502113605 | 10 | 272 | 1.6 | 4.8 | 0.00 | 0.05 | 0.05 | 90 | 1012.4 |
| 20260502113105 | 10 | 244 | 1.6 | 3.2 | 0.00 | 0.05 | 0.05 | 90 | 1012.4 |
| 20260502112605 | 10 | 244 | 1.6 | 4.8 | 0.03 | 0.05 | 0.05 | 90 | 1012.3 |
| 20260502112106 | 10 | 244 | 3.2 | 4.8 | 0.05 | 0.05 | 0.05 | 90 | 1012.1 |
| 20260502111605 | 10 | 202 | 0.0 | 3.2 | 0.05 | 0.05 | 0.05 | 90 | 1012.0 |
| 20260502111105 | 10 | 201 | 0.0 | 3.2 | 0.05 | 0.05 | 0.05 | 90 | 1011.9 |
| 20260502110605 | 10 | 201 | 0.0 | 3.2 | 0.05 | 0.05 | 0.05 | 90 | 1011.8 |
| 20260502110107 | 10 | 201 | 1.6 | 3.2 | 0.05 | 0.05 | 0.05 | 89 | 1011.6 |
| 20260502105605 | 10 | 201 | 1.6 | 3.2 | 0.05 | 0.05 | 0.05 | 89 | 1011.5 |
| 20260502105105 | 10 | 201 | 0.0 | 4.8 | 0.05 | 0.05 | 0.05 | 89 | 1011.6 |
| 20260502104605 | 10 | 202 | 0.0 | 4.8 | 0.05 | 0.05 | 0.05 | 88 | 1011.5 |
| 20260502104105 | 10 | 203 | 3.2 | 4.8 | 0.05 | 0.05 | 0.05 | 88 | 1011.5 |
| 20260502103605 | 10 | 203 | 1.6 | 3.2 | 0.05 | 0.05 | 0.05 | 87 | 1011.2 |
| 20260502103105 | 10 | 258 | 1.6 | 3.2 | 0.05 | 0.05 | 0.05 | 87 | 1011.4 |
| 20260502102605 | 10 | 258 | 0.0 | 4.8 | 0.03 | 0.03 | 0.03 | 86 | 1011.6 |
| 20260502102106 | 10 | 257 | 1.6 | 4.8 | 0.00 | 0.00 | 0.00 | 86 | 1011.9 |
| 20260502101605 | 10 | 256 | 0.0 | 4.8 | 0.00 | 0.00 | 0.00 | 85 | 1011.7 |
| 20260502101105 | 10 | 256 | 1.6 | 4.8 | 0.00 | 0.00 | 0.00 | 85 | 1011.7 |
| 20260502100605 | 10 | 248 | 3.2 | 9.7 | 0.00 | 0.00 | 0.00 | 85 | 1011.7 |
| 20260502100108 | 10 | 239 | 3.2 | 9.7 | 0.00 | 0.00 | 0.00 | 84 | 1011.8 |
| 20260502091105 | 10 | 232 | 3.2 | 9.7 | 0.00 | 0.00 | 0.00 | 82 | 1011.7 |
| 20260502090605 | 10 | 232 | 3.2 | 9.7 | 0.00 | 0.00 | 0.00 | 82 | 1011.7 |
| 20260502090107 | 10 | 200 | 3.2 | 12.9 | 0.00 | 0.00 | 0.00 | 82 | 1011.7 |
| 20260502080107 | 10 | 267 | 1.6 | 11.3 | 0.00 | 0.00 | 0.00 | 80 | 1011.8 |
| 20260502071105 | 10 | 244 | 3.2 | 8.0 | 0.00 | 0.00 | 0.00 | 78 | 1011.7 |
| 20260502070605 | 10 | 223 | 4.8 | 11.3 | 0.00 | 0.00 | 0.00 | 78 | 1011.8 |
| 20260502070107 | 10 | 201 | 3.2 | 12.9 | 0.00 | 0.00 | 0.00 | 78 | 1011.9 |
| 20260502065605 | 10 | 232 | 4.8 | 12.9 | 0.00 | 0.00 | 0.00 | 78 | 1011.9 |
| 20260502065105 | 10 | 220 | 1.6 | 9.7 | 0.00 | 0.00 | 0.00 | 77 | 1011.9 |
| 20260502064605 | 10 | 241 | 3.2 | 14.5 | 0.00 | 0.00 | 0.00 | 77 | 1012.0 |
| 20260502064106 | 10 | 233 | 4.8 | 14.5 | 0.00 | 0.00 | 0.00 | 77 | 1011.9 |
| 20260502063605 | 10 | 179 | 8.0 | 11.3 | 0.00 | 0.00 | 0.00 | 77 | 1011.9 |
| 20260502063106 | 10 | 236 | 4.8 | 12.9 | 0.00 | 0.00 | 0.00 | 77 | 1012.1 |
| 20260502062605 | 10 | 223 | 4.8 | 12.9 | 0.00 | 0.00 | 0.00 | 77 | 1012.1 |
| 20260502062107 | 10 | 246 | 3.2 | 11.3 | 0.00 | 0.00 | 0.00 | 76 | 1012.0 |
| 20260502061605 | 10 | 196 | 4.8 | 12.9 | 0.00 | 0.00 | 0.00 | 76 | 1012.0 |
| 20260502061105 | 10 | 186 | 6.4 | 12.9 | 0.00 | 0.00 | 0.00 | 76 | 1012.1 |
| 20260502060605 | 10 | 222 | 3.2 | 9.7 | 0.00 | 0.00 | 0.00 | 75 | 1012.2 |
| 20260502060107 | 10 | 234 | 3.2 | 8.0 | 0.00 | 0.00 | 0.00 | 75 | 1012.3 |
| 20260502055605 | 10 | 226 | 3.2 | 8.0 | 0.00 | 0.00 | 0.00 | 75 | 1012.3 |
| 20260502055105 | 10 | 190 | 3.2 | 8.0 | 0.00 | 0.00 | 0.00 | 74 | 1012.2 |
| 20260502054605 | 10 | 215 | 3.2 | 8.0 | 0.00 | 0.00 | 0.00 | 74 | 1012.2 |
| 20260502054106 | 10 | 257 | 1.6 | 4.8 | 0.00 | 0.00 | 0.00 | 74 | 1012.1 |
| 20260502053606 | 10 | 259 | 1.6 | 4.8 | 0.00 | 0.00 | 0.00 | 74 | 1012.1 |
| 20260502053106 | 11 | 226 | 3.2 | 4.8 | 0.00 | 0.00 | 0.00 | 74 | 1012.1 |
| 20260502052605 | 11 | 263 | 1.6 | 9.7 | 0.00 | 0.00 | 0.00 | 74 | 1011.7 |
| 20260502052106 | 11 | 230 | 3.2 | 9.7 | 0.00 | 0.00 | 0.00 | 73 | 1011.8 |
| 20260502051606 | 11 | 243 | 3.2 | 9.7 | 0.00 | 0.00 | 0.00 | 73 | 1011.9 |
| 20260502051105 | 11 | 306 | 4.8 | 9.7 | 0.00 | 0.00 | 0.00 | 73 | 1011.9 |
| 20260502050605 | 11 | 211 | 3.2 | 11.3 | 0.00 | 0.00 | 0.00 | 72 | 1012.0 |
| 20260502050107 | 11 | 182 | 4.8 | 11.3 | 0.00 | 0.00 | 0.00 | 70 | 1011.9 |
| 20260502045605 | 11 | 160 | 6.4 | 11.3 | 0.00 | 0.00 | 0.00 | 69 | 1012.1 |
| 20260502045105 | 11 | 184 | 6.4 | 9.7 | 0.00 | 0.00 | 0.00 | 69 | 1012.0 |
| 20260502044605 | 11 | 234 | 1.6 | 4.8 | 0.00 | 0.00 | 0.00 | 69 | 1011.9 |
| 20260502044106 | 11 | 244 | 1.6 | 8.0 | 0.00 | 0.00 | 0.00 | 68 | 1011.9 |
| 20260502043605 | 11 | 242 | 1.6 | 9.7 | 0.00 | 0.00 | 0.00 | 68 | 1012.0 |
| 20260502043105 | 11 | 221 | 3.2 | 12.9 | 0.00 | 0.00 | 0.00 | 68 | 1012.0 |
| 20260502042606 | 11 | 267 | 3.2 | 12.9 | 0.00 | 0.00 | 0.00 | 68 | 1012.2 |
| 20260502042106 | 11 | 283 | 3.2 | 9.7 | 0.00 | 0.00 | 0.00 | 68 | 1012.2 |
| 20260502041606 | 11 | 235 | 1.6 | 14.5 | 0.00 | 0.00 | 0.00 | 69 | 1012.2 |
| 20260502041105 | 11 | 280 | 3.2 | 14.5 | 0.00 | 0.00 | 0.00 | 69 | 1012.2 |
| 20260502040605 | 11 | 277 | 1.6 | 12.9 | 0.00 | 0.00 | 0.00 | 69 | 1012.3 |
| 20260502040107 | 11 | 228 | 8.0 | 12.9 | 0.00 | 0.00 | 0.00 | 70 | 1012.2 |
| 20260502035605 | 11 | 244 | 3.2 | 14.5 | 0.00 | 0.00 | 0.00 | 71 | 1012.2 |
| 20260502035106 | 11 | 205 | 4.8 | 19.3 | 0.00 | 0.00 | 0.00 | 71 | 1012.2 |
| 20260502034605 | 11 | 211 | 3.2 | 19.3 | 0.00 | 0.00 | 0.00 | 71 | 1012.2 |
| 20260502034106 | 11 | 247 | 3.2 | 12.9 | 0.00 | 0.00 | 0.00 | 72 | 1012.1 |
| 20260502033606 | 11 | 218 | 3.2 | 12.9 | 0.00 | 0.00 | 0.00 | 73 | 1012.0 |
| 20260502033106 | 11 | 167 | 4.8 | 12.9 | 0.00 | 0.00 | 0.00 | 73 | 1012.0 |
| 20260502032606 | 11 | 205 | 4.8 | 19.3 | 0.00 | 0.00 | 0.00 | 74 | 1011.9 |
| 20260502032106 | 11 | 223 | 6.4 | 19.3 | 0.00 | 0.00 | 0.00 | 75 | 1012.0 |
| 20260502031606 | 11 | 200 | 1.6 | 14.5 | 0.00 | 0.00 | 0.00 | 76 | 1012.1 |
| 20260502031105 | 11 | 224 | 6.4 | 14.5 | 0.00 | 0.00 | 0.00 | 77 | 1012.2 |
| 20260502030606 | 11 | 209 | 3.2 | 11.3 | 0.00 | 0.00 | 0.00 | 78 | 1012.3 |
| 20260502030107 | 11 | 189 | 3.2 | 11.3 | 0.00 | 0.00 | 0.00 | 79 | 1012.3 |
| 20260502025606 | 11 | 199 | 4.8 | 12.9 | 0.00 | 0.00 | 0.00 | 80 | 1012.3 |
| 20260502025106 | 10 | 210 | 4.8 | 14.5 | 0.00 | 0.00 | 0.00 | 80 | 1012.3 |
| 20260502024606 | 10 | 208 | 3.2 | 16.1 | 0.00 | 0.00 | 0.00 | 81 | 1012.4 |
| 20260502024106 | 10 | 266 | 3.2 | 16.1 | 0.00 | 0.00 | 0.00 | 81 | 1012.3 |
| 20260502023605 | 10 | 209 | 8.0 | 19.3 | 0.00 | 0.00 | 0.00 | 81 | 1012.4 |
| 20260502023105 | 10 | 168 | 6.4 | 19.3 | 0.00 | 0.00 | 0.00 | 81 | 1012.3 |
| 20260502022605 | 10 | 199 | 6.4 | 19.3 | 0.00 | 0.00 | 0.00 | 81 | 1012.3 |
| 20260502022106 | 10 | 185 | 9.7 | 19.3 | 0.00 | 0.00 | 0.00 | 82 | 1012.3 |
| 20260502021605 | 10 | 176 | 6.4 | 22.5 | 0.00 | 0.00 | 0.00 | 81 | 1012.2 |
| 20260502021105 | 10 | 220 | 12.9 | 24.1 | 0.00 | 0.00 | 0.00 | 81 | 1012.2 |
| 20260502020605 | 10 | 180 | 16.1 | 24.1 | 0.00 | 0.00 | 0.00 | 81 | 1012.2 |
| 20260502020108 | 10 | 189 | 8.0 | 22.5 | 0.00 | 0.00 | 0.00 | 81 | 1012.2 |
| 20260502015605 | 10 | 197 | 11.3 | 22.5 | 0.00 | 0.00 | 0.00 | 81 | 1012.2 |
| 20260502015105 | 10 | 160 | 11.3 | 32.2 | 0.00 | 0.00 | 0.00 | 81 | 1012.2 |
| 20260502014605 | 10 | 207 | 9.7 | 32.2 | 0.00 | 0.00 | 0.00 | 81 | 1012.2 |
| 20260502014106 | 10 | 172 | 16.1 | 32.2 | 0.00 | 0.00 | 0.00 | 81 | 1012.2 |
| 20260502013605 | 10 | 184 | 14.5 | 29.0 | 0.00 | 0.00 | 0.00 | 81 | 1012.1 |
| 20260502013105 | 10 | 190 | 11.3 | 29.0 | 0.00 | 0.00 | 0.00 | 80 | 1012.1 |
| 20260502012605 | 10 | 189 | 9.7 | 29.0 | 0.00 | 0.00 | 0.00 | 80 | 1012.1 |
| 20260502012106 | 10 | 147 | 12.9 | 27.4 | 0.00 | 0.00 | 0.00 | 79 | 1012.1 |
| 20260502011605 | 10 | 187 | 14.5 | 27.4 | 0.00 | 0.00 | 0.00 | 79 | 1012.0 |
| 20260502011105 | 10 | 169 | 9.7 | 33.8 | 0.00 | 0.00 | 0.00 | 78 | 1012.0 |
| 20260502010606 | 11 | 184 | 14.5 | 33.8 | 0.00 | 0.00 | 0.00 | 77 | 1012.0 |
| 20260502010108 | 11 | 140 | 8.0 | 19.3 | 0.00 | 0.00 | 0.00 | 77 | 1011.9 |
| 20260502005605 | 11 | 180 | 11.3 | 24.1 | 0.00 | 0.00 | 0.00 | 76 | 1011.9 |
| 20260502005105 | 11 | 182 | 14.5 | 32.2 | 0.00 | 0.00 | 0.00 | 76 | 1011.9 |
| 20260502004605 | 11 | 186 | 12.9 | 32.2 | 0.00 | 0.00 | 0.00 | 75 | 1011.9 |
| 20260502004108 | 11 | 178 | 19.3 | 32.2 | 0.00 | 0.00 | 0.00 | 75 | 1012.0 |
| 20260502003605 | 11 | 186 | 9.7 | 25.7 | 0.00 | 0.00 | 0.00 | 74 | 1011.9 |
| 20260502003105 | 11 | 189 | 14.5 | 27.4 | 0.00 | 0.00 | 0.00 | 74 | 1011.9 |
| 20260502002605 | 11 | 191 | 19.3 | 27.4 | 0.00 | 0.00 | 0.00 | 74 | 1011.8 |
| 20260502002106 | 11 | 180 | 12.9 | 25.7 | 0.00 | 0.00 | 0.00 | 74 | 1011.8 |
| 20260502001605 | 11 | 198 | 12.9 | 25.7 | 0.00 | 0.00 | 0.00 | 75 | 1011.8 |
| 20260502001105 | 11 | 190 | 9.7 | 25.7 | 0.00 | 0.00 | 0.00 | 75 | 1011.7 |
| 20260502000605 | 11 | 184 | 8.0 | 29.0 | 0.00 | 0.00 | 0.00 | 75 | 1011.7 |
| 20260502000106 | 11 | 188 | 11.3 | 29.0 | 0.00 | 0.00 | 0.00 | 75 | 1011.6 |
| 20260501235605 | 11 | 178 | 17.7 | 29.0 | 0.00 | 0.00 | 0.00 | 75 | 1011.5 |
| 20260501235105 | 11 | 184 | 11.3 | 33.8 | 0.00 | 0.00 | 0.00 | 75 | 1011.4 |
| 20260501234605 | 11 | 191 | 9.7 | 33.8 | 0.00 | 0.00 | 0.00 | 75 | 1011.4 |
| 20260501234106 | 11 | 197 | 11.3 | 29.0 | 0.00 | 0.00 | 0.00 | 75 | 1011.5 |
| 20260501233605 | 11 | 186 | 16.1 | 29.0 | 0.00 | 0.00 | 0.00 | 74 | 1011.5 |
| 20260501233105 | 11 | 186 | 14.5 | 29.0 | 0.00 | 0.00 | 0.00 | 74 | 1011.4 |
| 20260501232605 | 11 | 190 | 16.1 | 27.4 | 0.00 | 0.00 | 0.00 | 74 | 1011.4 |
| 20260501232106 | 11 | 139 | 12.9 | 29.0 | 0.00 | 0.00 | 0.00 | 74 | 1011.3 |
| 20260501231605 | 11 | 200 | 14.5 | 29.0 | 0.00 | 0.00 | 0.00 | 74 | 1011.3 |
| 20260501231105 | 11 | 199 | 9.7 | 25.7 | 0.00 | 0.00 | 0.00 | 73 | 1011.2 |
| 20260501230605 | 11 | 175 | 9.7 | 32.2 | 0.00 | 0.00 | 0.00 | 73 | 1011.1 |
| 20260501230108 | 11 | 150 | 11.3 | 32.2 | 0.00 | 0.00 | 0.00 | 72 | 1011.1 |
| 20260501225605 | 12 | 182 | 16.1 | 32.2 | 0.00 | 0.00 | 0.00 | 72 | 1011.2 |
| 20260501225105 | 12 | 181 | 20.9 | 32.2 | 0.00 | 0.00 | 0.00 | 71 | 1011.2 |
| 20260501224605 | 12 | 183 | 14.5 | 32.2 | 0.00 | 0.00 | 0.00 | 71 | 1011.2 |
| 20260501224106 | 12 | 192 | 14.5 | 32.2 | 0.00 | 0.00 | 0.00 | 70 | 1011.2 |
| 20260501223605 | 12 | 180 | 14.5 | 32.2 | 0.00 | 0.00 | 0.00 | 70 | 1011.1 |
| 20260501223105 | 12 | 198 | 19.3 | 32.2 | 0.00 | 0.00 | 0.00 | 69 | 1011.2 |
| 20260501222605 | 12 | 177 | 9.7 | 37.0 | 0.00 | 0.00 | 0.00 | 69 | 1011.2 |
| 20260501222107 | 12 | 183 | 20.9 | 37.0 | 0.00 | 0.00 | 0.00 | 68 | 1011.3 |
| 20260501221605 | 12 | 185 | 16.1 | 32.2 | 0.00 | 0.00 | 0.00 | 68 | 1011.4 |